Wind_Speed
8 11 13 14 13 12 12 11 10 9 8 7 8 8 9 10 10 11 12 12 12 13 14 14 14 12 12 12 13 14 13 12 12 13 14 14 14 15 14 14 14 15 14 14 14 13 13 13 12 12 12 11 12 13 15 18 18 18 19 20 21 21 21 22 22 22 20 18 18 18 18 17 17 17 17 17 18 17 17 18 18 19 19 18 18
10 11 12 14 13 13 12 10 10 9 7 6 8 8 9 11 11 12 13 12 12 13 14 15 14 12 12 12 13 13 12 12 12 13 13 14 14 14 14 13 12 13 13 13 13 13 12 12 11 12 12 11 12 15 16 18 19 17 18 20 21 21 20 19 20 19 17 17 18 18 18 17 16 16 17 18 17 18 17 17 17 18 19 18 18
13 13 13 14 14 14 12 11 10 9 7 6 8 8 10 12 12 13 13 12 13 14 15 15 14 12 11 11 13 12 10 12 12 12 13 13 13 13 12 11 12 12 12 13 13 12 12 11 11 12 11 11 12 14 15 17 18 16 17 18 17 17 18 19 21 19 17 18 18 18 18 18 17 16 17 16 16 16 17 17 17 18 18 17 17
13 13 13 14 14 14 13 11 11 10 8 6 8 8 10 12 12 14 14 12 13 14 15 15 13 12 11 11 12 11 9 11 12 12 12 12 13 12 10 9 11 12 12 12 12 12 12 11 11 11 11 11 12 14 15 16 16 15 17 16 15 18 21 23 23 21 20 21 20 18 17 18 18 16 16 16 15 15 16 17 17 17 16 16 17
12 12 13 14 14 14 13 12 11 10 9 7 8 9 9 11 13 14 13 12 13 14 16 15 14 12 11 11 11 9 9 10 11 11 12 12 12 11 9 9 10 11 11 12 11 11 11 10 10 10 10 10 12 13 14 15 15 15 16 18 18 20 22 22 21 20 20 20 18 17 17 18 17 16 16 16 16 16 16 16 16 16 16 16 16
11 12 13 13 13 15 14 12 12 11 11 8 8 9 9 11 13 14 13 12 13 14 16 15 13 12 11 11 11 9 9 9 10 10 11 12 11 10 9 9 10 10 11 12 11 11 10 10 10 10 10 10 12 13 13 14 14 15 17 20 20 19 19 18 17 16 15 13 14 16 17 17 15 15 15 15 15 15 15 15 15 16 15 15 16
12 13 13 12 13 16 14 13 13 12 12 10 9 10 10 11 13 14 13 12 13 14 15 15 13 13 11 11 10 9 9 9 9 10 11 12 11 10 10 10 10 11 11 11 11 10 10 9 10 10 10 10 11 12 13 13 14 15 18 20 18 16 16 16 14 12 11 10 14 15 14 15 14 14 13 14 14 14 14 14 14 14 14 14 15
14 14 13 12 15 17 16 14 13 13 12 10 9 10 10 11 12 13 13 12 13 14 15 15 13 13 12 12 10 9 10 9 10 10 11 12 11 10 11 11 11 11 11 11 10 10 9 9 10 10 10 10 11 12 12 12 12 14 16 17 16 16 15 14 11 8 7 8 13 13 13 14 14 14 13 13 13 13 13 13 14 14 14 14 15
16 15 13 13 17 19 17 16 14 13 12 10 10 10 10 10 12 12 13 12 12 14 14 15 14 13 12 12 11 9 9 9 10 11 12 12 11 11 11 11 11 11 10 10 10 10 9 9 10 10 10 9 11 11 11 10 11 12 13 14 16 17 16 14 13 10 8 11 14 13 14 15 14 14 12 12 12 12 12 13 14 14 14 14 15
16 14 13 13 19 20 17 17 14 14 13 11 10 9 9 9 11 12 14 13 13 14 14 14 13 12 12 11 10 10 10 9 11 11 12 12 12 12 12 11 11 11 9 9 10 10 9 9 10 10 9 10 11 10 10 10 9 9 10 13 16 18 17 15 15 13 11 14 16 15 15 15 15 14 11 11 13 12 12 13 14 13 14 14 15
13 13 12 13 19 19 18 17 15 15 15 12 10 9 9 9 10 11 13 13 13 14 13 14 13 12 12 11 10 10 10 10 11 12 12 12 11 12 11 11 11 11 9 9 10 10 9 8 9 9 10 10 11 10 9 9 9 9 9 11 14 15 14 11 11 12 11 11 12 14 14 13 14 13 11 11 13 12 12 14 14 13 14 14 15
11 12 11 14 19 19 18 17 16 16 15 13 12 10 9 9 10 10 12 13 14 14 13 14 13 12 12 11 10 10 10 10 11 12 12 11 11 12 12 12 11 11 10 10 10 8 7 7 8 9 10 11 11 10 10 9 9 9 9 10 12 13 12 9 8 11 11 11 11 14 14 13 14 14 12 12 12 12 13 13 13 13 14 14 14
12 11 10 14 18 17 17 16 15 16 15 14 13 12 10 9 9 10 11 12 14 14 13 13 13 12 12 12 11 10 10 10 12 13 12 11 11 11 12 12 11 11 11 11 10 8 7 7 8 8 9 11 11 11 10 9 9 9 10 10 10 10 10 8 6 9 11 11 12 13 12 12 15 14 12 12 12 12 12 12 12 13 13 14 13
15 13 11 13 16 15 16 15 14 15 14 14 13 13 11 10 9 9 10 11 12 13 14 13 13 13 13 12 12 11 11 11 12 12 11 11 11 11 11 11 11 11 11 11 10 9 6 6 7 8 9 11 11 11 10 10 9 9 11 10 8 6 6 5 6 7 9 10 11 10 8 10 14 14 11 12 12 12 12 12 12 12 13 13 13
16 16 12 12 15 15 14 14 14 14 14 13 13 12 11 11 9 9 9 10 12 13 14 13 12 13 13 13 12 11 12 12 12 12 11 11 10 10 10 10 10 11 12 11 10 8 7 7 7 8 9 11 11 11 11 10 9 9 11 11 9 5 4 5 7 7 9 10 12 10 9 11 14 13 11 11 11 11 12 12 12 12 12 12 12
16 16 14 12 12 13 15 15 15 15 14 13 12 12 11 11 10 9 9 10 12 13 13 12 12 13 14 13 12 11 12 12 12 11 11 11 10 10 10 10 11 11 12 10 9 8 7 8 8 8 10 11 11 12 11 9 9 8 10 11 10 6 4 6 9 9 10 10 11 9 9 11 14 14 11 11 11 11 11 11 11 11 12 12 12
17 16 15 14 11 10 13 15 15 15 15 14 13 12 11 11 10 9 9 10 11 12 12 12 12 13 14 13 12 11 12 13 12 10 10 11 10 10 10 11 11 11 11 10 9 8 7 8 8 9 11 11 11 12 10 9 9 8 10 11 10 8 6 7 8 8 10 10 12 10 9 11 13 13 12 11 10 11 11 11 11 11 11 11 11
16 17 16 15 13 10 12 14 14 12 13 14 14 13 12 11 10 10 9 10 11 11 12 12 12 13 12 12 12 11 12 13 11 10 10 11 11 11 11 11 12 12 11 10 9 8 7 8 8 10 12 12 12 11 10 9 9 8 8 10 11 11 8 7 8 8 9 9 14 11 9 11 12 13 12 11 10 11 10 10 10 10 10 11 11
13 13 15 15 14 12 11 11 11 9 11 14 14 14 13 12 11 10 10 10 11 11 11 11 12 12 12 11 11 11 12 12 10 10 11 11 11 11 11 11 12 12 11 10 9 7 7 8 9 11 12 12 11 10 9 8 8 7 6 9 12 12 7 6 7 8 8 7 12 10 9 10 10 12 12 11 11 10 10 10 10 10 10 11 10
12 11 11 13 15 14 11 9 10 8 9 11 12 13 14 14 13 12 11 11 11 11 10 11 11 11 12 12 11 11 12 11 11 12 13 13 12 12 11 11 12 12 10 9 9 7 7 8 10 12 12 11 10 9 7 7 7 5 5 8 13 10 6 7 7 7 10 8 8 7 7 8 8 12 12 10 11 10 10 10 9 9 10 9 8
11 11 11 10 12 14 13 10 9 8 7 8 10 12 14 15 14 13 13 12 11 11 10 10 10 10 11 11 11 11 11 12 12 12 13 14 13 12 11 11 12 11 10 8 8 8 8 9 11 12 12 11 9 8 7 6 6 5 4 6 11 9 5 7 6 6 11 10 6 5 5 5 6 10 11 10 10 9 10 9 8 9 10 8 7
12 10 9 8 8 9 12 12 9 6 6 7 8 10 14 15 15 15 15 13 11 10 10 10 10 10 11 12 12 12 11 11 12 13 14 14 14 13 11 11 12 11 9 8 8 8 9 9 11 12 11 10 9 9 8 7 6 6 5 6 10 9 7 6 3 3 7 9 7 6 4 3 5 9 11 9 9 9 9 9 8 9 9 8 7
11 10 9 8 7 7 9 10 9 6 5 5 7 9 10 14 16 16 15 13 11 11 10 9 9 10 12 12 12 12 12 11 11 13 13 13 14 13 12 11 12 10 8 8 9 9 9 10 11 12 10 10 10 9 9 8 7 7 7 8 9 8 6 3 3 4 6 9 8 7 4 3 6 10 11 9 8 8 9 9 7 8 7 7 7
10 10 8 7 7 6 7 7 7 6 4 4 6 8 8 12 16 15 14 14 13 11 10 10 10 10 12 12 12 11 11 11 11 11 11 13 14 14 13 12 12 11 9 9 10 10 10 10 11 12 11 12 12 12 11 8 8 7 7 10 9 6 5 6 4 4 8 9 8 7 4 3 6 11 11 9 9 8 8 8 6 7 6 7 8
9 11 9 6 6 6 6 6 5 5 5 5 4 5 9 11 12 12 12 13 13 12 11 11 10 10 11 11 11 11 11 11 11 12 12 13 14 14 14 13 13 12 11 11 11 11 11 11 11 13 14 14 13 13 14 11 8 7 7 9 7 4 5 7 6 5 8 9 8 5 3 3 7 11 10 9 8 7 8 7 6 6 5 6 8
10 11 9 6 5 6 6 5 5 4 4 6 4 3 7 8 9 10 10 11 12 12 11 12 11 9 10 10 9 10 13 11 10 13 13 12 13 14 15 14 14 14 13 12 12 13 13 12 12 14 15 14 13 11 12 13 10 6 7 7 5 6 6 6 6 5 8 9 7 5 3 4 9 11 10 9 8 8 8 7 5 5 4 4 6
10 10 9 7 7 7 7 6 6 3 3 6 8 7 6 7 9 9 8 10 11 11 11 13 12 10 11 12 8 8 12 10 10 13 13 13 15 17 17 16 16 16 15 14 14 14 14 15 12 12 13 13 13 9 8 10 10 8 7 7 5 7 8 7 6 6 7 7 7 5 3 3 8 11 11 10 9 9 8 7 6 4 3 3 4
11 10 9 7 7 8 7 7 6 4 5 6 9 11 9 5 7 8 7 9 8 9 12 14 12 11 12 10 6 7 10 9 10 12 12 13 16 18 18 18 18 17 17 15 15 15 16 17 12 10 12 12 11 9 7 7 7 7 9 10 8 7 8 8 8 9 8 6 6 3 1 3 6 10 13 12 10 10 9 8 7 5 3 4 3
10 10 8 8 8 7 8 7 6 4 4 6 7 9 10 7 5 4 5 8 7 8 12 12 10 11 10 6 5 6 8 9 9 10 11 12 14 16 16 18 19 16 16 16 16 15 15 17 15 13 13 13 12 11 10 7 7 7 7 10 10 9 9 8 8 10 9 7 6 5 4 4 5 9 12 14 12 11 10 9 8 7 5 4 3
10 9 8 9 8 8 8 6 7 6 5 6 7 6 6 5 5 5 4 5 6 6 8 9 6 6 7 5 6 6 7 9 8 9 12 12 12 16 16 19 20 15 16 16 15 15 14 15 16 14 13 12 11 12 11 8 7 8 7 8 10 10 10 10 9 9 10 10 9 8 7 5 4 6 10 13 13 11 11 10 9 8 6 6 5
10 10 9 9 9 9 9 7 8 9 7 6 6 5 4 4 4 5 8 7 3 1 3 7 4 3 4 6 7 7 7 8 9 10 12 10 8 13 15 18 19 15 16 15 12 14 15 15 15 13 12 11 10 11 12 7 7 9 8 9 8 9 10 10 11 9 10 12 11 10 9 6 5 5 8 11 13 13 11 11 11 9 7 7 6
10 10 10 10 10 10 10 8 8 9 9 8 7 6 5 4 4 4 7 7 4 2 0 3 2 2 3 5 7 7 7 8 9 9 9 9 6 10 13 15 15 15 19 16 11 14 15 15 16 13 13 13 10 10 12 9 7 8 9 10 9 10 11 11 12 10 10 12 11 11 10 8 7 6 7 10 13 14 13 13 12 10 9 8 7
12 11 11 11 10 10 10 9 9 9 9 8 7 6 5 5 4 4 5 5 3 1 1 3 4 2 4 5 6 7 8 9 9 7 8 10 8 9 12 13 14 14 19 19 14 15 14 14 15 13 13 14 12 9 10 10 9 8 9 10 11 11 11 11 13 12 11 12 11 11 10 10 9 8 8 9 10 13 16 15 14 12 11 10 8
14 12 12 11 10 10 10 10 10 10 9 9 8 7 6 6 5 5 4 5 4 3 3 3 4 4 3 5 6 7 10 9 8 7 8 10 9 10 12 13 15 14 17 18 16 15 13 11 12 12 12 12 10 7 6 8 8 8 9 11 11 11 12 12 13 14 13 12 11 11 11 11 11 10 9 9 9 11 13 15 17 14 12 12 10
15 14 13 11 11 11 10 11 11 11 10 10 10 9 8 8 7 5 5 6 4 4 5 3 3 2 1 4 7 9 8 7 6 7 9 9 8 9 12 14 14 14 15 14 14 12 11 12 10 10 11 9 8 8 7 7 8 9 10 11 11 10 11 13 12 12 13 13 12 11 10 10 11 11 11 11 10 10 10 13 19 18 15 13 12
16 15 14 13 13 12 12 12 11 11 11 10 10 10 9 9 8 7 6 7 6 4 4 3 2 2 0 1 3 8 8 6 6 8 9 8 7 9 12 14 13 13 13 13 14 11 11 13 10 9 11 10 10 12 12 12 11 11 10 10 12 12 11 12 13 12 13 15 15 13 10 10 11 11 10 10 10 10 10 12 17 19 18 15 13
16 16 16 15 15 13 12 11 10 10 9 9 9 8 8 7 7 8 7 6 6 4 3 3 2 3 2 4 2 3 6 6 6 7 8 8 9 10 11 12 12 11 10 11 15 13 10 11 10 11 13 12 12 13 14 15 14 13 13 11 11 13 12 11 13 14 14 14 16 16 13 11 11 10 9 10 10 10 11 12 15 17 18 17 15
17 17 17 17 16 14 12 11 9 8 7 8 8 7 9 7 6 8 7 5 5 5 3 3 3 3 2 3 2 0 3 5 6 5 6 6 8 10 11 12 12 12 11 11 14 13 11 10 10 12 12 11 13 14 14 13 13 13 16 15 12 13 14 13 13 15 17 15 13 15 16 15 15 12 10 10 10 10 11 13 15 16 17 18 17
19 18 18 17 16 14 12 11 9 8 7 7 7 8 9 7 6 7 7 5 5 5 4 3 3 3 3 2 0 1 1 3 5 4 4 4 5 7 9 11 13 14 14 13 14 14 13 13 12 14 14 13 14 14 14 12 10 11 11 15 16 14 14 15 14 15 18 18 15 15 16 17 18 17 14 12 10 10 11 13 16 17 17 18 18
20 20 19 17 16 15 13 11 9 8 6 5 6 7 7 8 7 5 6 7 5 3 4 3 1 2 3 3 1 1 1 2 2 3 4 4 5 6 7 8 11 14 15 14 13 13 14 14 12 13 15 16 16 14 12 12 11 13 15 10 14 12 13 15 16 15 16 18 19 18 17 16 17 18 17 16 14 13 13 13 15 17 18 19 19
20 20 19 18 17 15 14 12 11 9 6 4 5 6 5 7 6 4 5 7 6 4 6 5 1 1 1 2 2 1 1 1 2 2 3 3 4 5 6 7 9 11 12 11 11 11 13 14 14 14 15 16 17 16 15 13 10 10 13 9 10 10 11 13 16 17 17 17 19 20 19 16 15 16 16 17 16 15 16 16 16 17 18 19 20
21 21 20 19 17 16 14 13 11 9 6 5 8 7 5 6 6 4 4 5 6 6 6 4 3 1 1 2 2 2 0 1 1 2 3 3 3 4 5 5 7 10 9 9 10 11 11 14 15 16 16 15 15 17 18 16 10 8 8 6 6 8 12 15 16 17 18 18 17 19 21 19 17 17 17 18 18 17 17 17 17 17 17 19 20
22 22 20 19 18 16 15 13 12 10 8 8 8 7 7 7 7 5 5 5 4 5 6 5 4 3 1 2 3 2 0 1 1 2 3 4 4 4 4 4 5 7 7 8 9 9 11 14 15 16 15 14 16 16 16 16 13 10 7 4 4 4 8 14 17 18 19 20 20 19 21 21 21 20 19 19 18 18 18 18 18 17 17 20 21
23 23 21 20 19 17 16 14 13 12 11 10 9 9 9 8 7 6 6 6 5 5 6 5 4 2 1 2 3 1 0 2 2 2 3 3 4 4 5 5 6 6 7 8 8 8 10 13 15 17 16 16 20 18 15 16 16 13 6 2 3 4 4 9 15 21 23 22 22 22 20 21 22 21 21 20 18 19 20 20 20 20 19 21 21
23 24 24 22 20 18 17 16 14 13 12 12 11 11 9 6 6 5 5 7 7 6 6 5 4 2 2 2 2 1 2 2 2 2 3 3 4 4 5 5 6 7 7 8 9 9 10 11 13 16 17 20 24 21 16 16 18 18 13 6 3 3 3 4 8 15 22 23 23 23 23 23 23 22 23 22 20 21 22 22 22 22 23 23 21
24 25 25 24 21 20 18 17 16 14 14 14 13 11 8 6 7 7 7 7 7 7 5 4 4 3 1 1 1 2 2 3 2 2 2 3 3 4 5 6 7 8 8 9 10 10 11 12 14 15 17 21 24 22 20 20 20 20 21 17 11 7 4 3 2 4 14 23 24 23 23 25 24 23 22 22 22 23 23 24 23 22 23 24 23
24 25 26 25 22 21 20 18 17 15 15 16 14 11 9 8 8 6 4 4 5 7 4 4 4 3 1 0 1 1 3 3 2 3 3 3 3 4 5 6 8 8 9 10 11 12 12 12 13 15 17 19 21 22 23 24 22 21 25 25 23 20 16 9 5 3 4 12 19 21 21 23 24 24 23 22 23 24 23 24 24 24 24 24 24
25 25 26 26 23 22 21 20 18 16 16 16 15 13 11 10 8 6 5 4 5 6 5 4 3 3 2 0 1 1 2 2 2 2 3 3 4 4 5 6 7 8 9 10 11 13 13 13 13 15 18 18 19 22 24 23 20 21 25 25 25 29 28 21 15 10 4 3 9 15 19 22 25 25 25 24 23 24 25 25 24 24 25 24 24
25 25 25 26 24 22 22 21 19 17 17 17 17 15 12 11 10 8 7 6 5 6 6 6 4 3 3 1 0 0 1 1 1 2 3 4 5 5 5 6 7 8 9 10 12 13 14 15 15 16 17 18 20 21 23 22 21 23 22 20 23 28 28 26 23 18 10 6 4 6 12 18 20 23 26 27 26 24 23 24 24 23 23 23 24
25 25 24 24 24 23 22 22 21 18 18 18 18 16 13 12 12 10 8 7 7 6 6 6 5 4 4 2 2 1 1 1 2 2 3 3 4 6 6 8 9 10 10 11 13 14 15 16 16 17 17 18 20 21 23 23 22 23 22 20 21 21 19 19 21 20 15 11 7 4 7 9 11 17 24 27 28 26 23 23 24 25 22 21 23
25 24 23 23 24 24 23 23 21 19 19 19 18 17 16 14 13 11 10 9 8 7 6 6 6 5 4 3 3 3 3 3 3 4 4 4 5 5 6 8 10 11 12 13 14 14 15 16 16 18 18 18 20 21 23 24 23 24 24 23 22 21 19 17 19 21 15 10 8 5 6 8 8 13 21 26 30 29 27 25 24 24 24 22 22
Wind_Direction
115 125 135 134 126 119 114 109 106 106 101 102 115 131 146 150 144 135 134 138 145 150 152 152 150 143 140 141 142 140 133 125 123 120 118 118 118 121 117 114 112 110 110 107 104 99 96 92 90 92 91 90 90 91 92 94 97 98 100 102 98 96 97 95 94 93 92 90 88 86 84 83 77 74 75 73 78 81 82 82 82 82 78 75 74
132 134 143 141 132 125 118 113 109 109 111 103 112 134 149 152 144 135 139 145 149 154 155 155 152 145 142 145 147 145 140 133 129 125 125 124 123 124 122 121 120 113 110 108 105 101 95 91 94 98 94 94 98 99 98 98 100 98 102 108 107 105 103 99 99 99 99 96 91 89 82 77 73 76 78 77 86 87 84 85 84 85 82 78 76
136 142 148 146 137 130 123 117 113 114 117 106 111 129 149 153 144 138 146 151 153 157 158 157 153 148 144 148 151 151 144 138 135 131 132 131 129 129 129 127 122 116 114 112 106 101 97 97 100 101 101 102 104 104 102 105 106 101 101 109 111 107 100 94 93 95 103 103 95 89 82 76 76 80 77 76 88 87 83 84 84 86 84 80 77
137 145 147 150 144 134 130 124 118 119 121 114 112 124 148 155 146 143 149 155 156 159 161 159 155 150 147 151 156 157 150 143 139 137 137 138 135 130 131 130 124 120 120 118 111 107 103 104 104 103 107 107 109 108 107 111 112 105 99 99 103 101 96 94 94 98 106 103 94 88 82 79 80 80 76 75 82 81 81 82 83 86 84 81 78
137 145 144 151 148 139 135 129 124 124 126 123 117 123 145 156 152 148 152 158 158 161 165 162 157 153 152 155 159 162 158 148 141 141 143 143 140 135 133 132 129 128 126 123 118 114 109 108 107 105 108 110 112 112 113 115 113 105 97 96 100 100 95 93 96 104 112 104 91 87 82 82 83 80 78 79 80 80 82 82 83 83 81 80 77
137 143 143 145 148 146 140 134 129 128 131 131 125 126 141 155 157 154 157 163 161 164 168 165 160 156 158 160 160 162 162 153 144 145 148 149 148 144 139 137 135 134 131 126 123 119 116 113 111 110 111 114 115 116 118 116 113 104 98 102 102 98 95 93 97 106 117 107 90 89 85 86 86 82 82 82 82 82 82 82 82 80 79 78 76
133 137 141 141 150 150 145 140 135 135 136 137 133 130 139 153 158 158 161 165 162 165 170 168 164 161 162 165 163 163 164 158 150 150 152 155 155 149 144 143 139 137 136 129 126 124 120 118 116 115 114 119 120 120 121 116 112 105 101 108 105 96 93 93 96 102 109 102 97 98 91 91 90 85 84 83 85 85 83 83 81 77 75 74 74
131 134 140 144 154 154 149 144 140 140 136 135 134 133 141 153 158 159 164 165 162 164 170 170 169 166 166 167 165 166 166 162 157 153 154 158 157 151 146 144 140 139 137 132 129 128 127 124 121 121 121 123 125 126 124 118 111 107 105 110 109 99 93 88 85 89 98 98 102 106 100 100 97 91 87 84 85 86 86 84 82 78 76 74 74
127 135 143 148 157 157 152 147 146 142 134 135 134 135 139 149 156 157 163 165 163 164 168 172 173 170 169 170 167 169 170 166 161 156 156 159 159 155 151 147 143 141 140 136 133 134 135 129 126 128 129 130 132 132 126 117 110 108 103 106 109 106 99 87 75 64 74 95 102 104 101 103 100 95 88 85 85 88 90 84 83 81 79 76 73
123 130 136 148 159 159 154 150 152 145 136 137 135 136 136 143 151 154 163 167 169 168 170 174 176 173 172 174 170 169 170 170 165 160 159 161 163 161 159 156 151 148 148 143 138 141 142 136 136 134 135 135 136 139 128 116 110 105 102 106 111 111 105 96 86 68 70 90 99 105 105 107 103 96 91 89 87 92 93 83 83 81 78 76 73
114 120 123 141 158 161 155 153 155 146 139 141 137 137 137 140 146 152 162 170 175 172 175 179 178 177 176 177 174 170 170 174 170 165 164 165 165 165 165 164 162 159 156 150 146 149 149 143 142 140 142 142 140 142 130 117 111 100 101 110 114 116 108 102 89 72 76 82 95 111 111 111 105 97 98 96 90 91 91 85 85 83 79 77 76
106 111 118 135 154 160 157 158 156 146 144 147 141 140 143 143 147 152 159 169 178 177 180 182 180 179 178 180 179 176 173 174 175 170 168 169 166 165 167 166 167 166 161 157 157 157 150 146 144 147 151 148 143 144 133 121 113 99 103 113 115 113 105 103 77 71 93 96 106 119 111 105 103 98 99 100 94 90 91 90 87 84 82 80 78
108 109 117 135 152 159 158 161 157 151 153 153 148 147 147 149 152 155 160 168 176 182 184 182 182 182 180 182 182 182 177 175 179 175 170 172 168 166 166 166 169 168 164 163 166 163 153 148 147 151 154 151 145 145 137 124 116 102 110 117 115 115 112 111 72 76 103 109 121 125 111 101 102 101 99 101 97 94 94 92 90 87 85 83 81
112 114 122 142 154 159 160 162 160 158 160 159 154 150 149 152 157 160 165 170 177 182 183 182 184 185 183 183 183 184 182 179 183 178 175 176 171 170 167 168 173 170 170 174 174 170 162 152 147 151 156 154 148 146 139 126 118 106 116 124 121 123 122 102 60 96 114 106 117 121 111 100 105 107 102 104 100 98 97 94 93 91 90 87 84
111 115 120 143 157 160 161 167 167 166 168 164 157 154 154 156 160 164 170 176 182 183 183 186 188 188 184 185 184 186 186 183 186 182 182 183 177 176 174 173 177 177 178 183 181 176 171 157 148 156 161 158 150 145 138 127 118 108 122 132 131 132 113 69 52 99 120 113 120 120 112 100 106 111 106 108 104 103 101 99 97 93 93 89 87
112 113 116 129 151 161 164 171 175 173 174 170 162 161 161 160 163 167 175 180 186 188 189 190 191 189 184 187 187 187 189 188 191 190 190 189 184 184 183 181 181 184 186 189 186 177 171 159 153 161 167 162 150 144 138 127 121 113 127 138 141 136 86 66 64 101 125 131 140 132 117 104 111 116 113 113 108 107 104 102 101 96 96 92 89
115 113 113 117 129 152 165 174 178 176 178 178 170 169 169 166 167 171 180 186 190 193 194 192 191 189 186 190 189 189 194 196 197 196 199 194 189 189 189 190 186 191 193 193 186 176 171 161 153 159 162 157 147 144 139 130 126 117 129 144 144 122 82 68 66 105 130 141 152 144 122 112 120 125 120 119 113 111 109 107 105 101 101 95 92
111 114 115 113 116 131 156 175 179 175 177 182 178 177 178 174 173 174 182 191 193 195 196 193 191 193 194 195 193 194 198 198 199 199 205 199 192 190 192 195 191 195 198 197 189 176 172 164 155 157 155 150 146 145 141 134 131 121 129 148 141 114 91 69 64 102 118 129 142 137 120 114 122 128 124 124 120 118 116 112 109 105 102 98 95
89 101 111 116 116 116 129 156 165 164 170 180 184 185 186 185 183 179 183 194 196 196 199 196 193 200 204 204 200 198 199 200 203 202 207 207 196 192 195 195 192 195 197 199 198 183 173 166 159 158 154 149 149 147 145 140 136 129 130 150 144 119 93 64 65 117 130 128 136 126 116 117 121 127 128 129 125 123 121 115 112 110 105 102 100
74 74 88 110 119 117 112 123 144 154 162 175 187 191 193 193 191 188 187 193 199 200 200 200 199 206 209 209 205 199 201 205 208 206 208 212 203 195 198 195 191 195 197 200 204 193 176 168 165 161 156 152 150 152 156 154 148 142 135 151 157 144 94 58 56 119 145 144 136 123 115 117 123 129 132 133 129 128 124 119 115 112 109 106 103
82 71 64 82 108 118 119 118 131 146 157 171 185 191 197 198 196 195 192 192 198 202 201 203 204 209 211 207 203 201 205 210 211 209 209 213 208 200 199 197 193 192 194 200 205 195 177 172 168 163 160 154 152 152 157 166 163 162 156 148 166 167 87 74 78 105 143 151 145 135 121 117 129 133 133 134 133 132 126 121 118 113 111 108 103
100 86 69 66 74 90 112 121 121 133 159 167 178 190 197 198 199 199 198 195 195 203 202 201 204 205 208 205 203 204 206 211 211 209 210 211 208 206 202 197 195 191 191 194 199 190 174 175 172 168 164 159 157 154 151 157 160 168 175 158 166 158 80 94 143 80 136 154 148 140 127 122 136 137 136 139 137 134 130 128 125 121 119 115 106
103 95 81 73 62 54 79 102 105 115 142 141 161 183 194 195 198 200 200 197 193 201 200 199 205 204 206 207 207 207 205 209 211 207 209 210 208 209 205 198 197 194 191 187 192 185 172 175 177 176 172 171 172 167 160 152 150 160 175 170 162 146 110 157 172 88 147 160 145 137 127 128 139 141 139 143 143 137 136 136 133 131 133 128 112
102 99 89 80 82 70 64 79 93 109 123 111 144 166 182 190 193 199 200 200 197 195 197 200 205 205 206 209 210 211 210 210 209 203 206 211 209 209 204 198 196 194 193 185 185 184 174 175 185 189 187 190 188 184 181 161 150 153 168 173 157 142 162 199 184 138 169 161 144 141 135 140 145 146 144 147 149 144 142 142 138 133 137 131 118
109 102 97 93 99 103 89 81 85 104 120 107 112 156 176 178 184 195 194 196 198 195 200 202 205 211 207 210 213 208 209 213 208 199 206 210 206 207 204 198 195 195 194 184 183 183 176 177 188 198 201 205 207 207 197 179 169 156 157 169 167 174 183 194 202 195 185 164 152 158 146 154 158 152 149 153 155 153 150 149 142 134 145 142 129
104 96 95 94 95 104 104 93 85 96 122 129 110 122 170 176 184 195 189 192 196 194 201 203 207 213 204 207 211 203 205 217 220 210 210 212 206 205 203 200 197 196 192 182 185 182 176 181 187 198 206 212 222 223 199 183 182 168 158 163 181 208 184 183 208 200 183 165 150 155 133 151 168 161 156 160 161 162 160 156 155 145 156 159 145
96 96 98 91 82 83 92 92 88 81 70 120 124 113 143 182 198 199 190 194 197 197 203 203 206 209 208 209 204 206 208 213 228 217 210 212 212 208 203 200 198 198 191 180 190 185 175 184 188 198 210 220 227 219 193 184 178 173 184 183 186 203 183 181 200 187 180 166 149 145 121 157 176 169 162 166 169 169 169 166 171 171 156 154 157
97 95 96 94 83 74 79 82 79 74 48 84 122 117 108 128 183 194 190 191 194 207 210 207 208 213 220 217 204 224 216 206 217 213 209 214 215 212 205 201 199 200 192 183 194 192 182 193 202 207 214 226 222 198 191 197 189 189 202 200 194 194 184 189 197 183 184 174 162 165 164 191 190 181 172 170 176 174 174 178 177 181 171 158 155
101 96 95 92 90 85 84 84 76 78 60 62 97 109 97 92 114 154 190 197 192 207 215 211 215 219 226 224 213 229 216 210 216 206 207 217 220 218 213 205 202 202 198 194 199 195 191 202 212 216 223 232 214 188 188 198 213 218 218 213 204 194 187 199 201 183 193 206 195 204 207 189 181 188 185 176 179 181 178 185 184 184 184 177 174
110 108 102 90 92 92 87 88 81 80 81 74 76 82 85 86 89 101 125 178 193 211 219 214 222 225 227 228 222 221 210 218 224 210 209 216 221 223 221 209 205 206 200 204 208 199 196 204 212 218 224 232 214 188 182 185 214 220 225 231 219 206 196 198 205 193 202 215 209 205 197 189 180 189 194 182 180 185 184 187 190 190 191 192 190
120 115 108 97 94 91 82 83 87 83 87 92 86 77 67 64 73 98 97 94 113 62 218 218 236 248 237 239 232 224 219 228 229 224 221 219 211 214 220 210 210 216 205 211 217 201 203 205 208 218 223 231 224 193 182 187 214 215 219 236 239 224 209 202 206 204 206 210 204 199 193 195 206 206 202 194 187 187 189 190 193 194 196 199 191
124 115 111 104 95 91 84 80 85 83 83 91 93 89 78 75 67 66 80 80 75 45 1 203 199 237 271 275 250 227 223 233 232 233 230 230 211 199 212 210 212 216 209 221 223 199 210 211 204 215 222 229 235 204 188 191 212 223 222 224 232 228 222 215 205 203 209 209 203 197 199 200 206 217 211 206 200 192 191 190 197 203 200 203 198
119 118 117 112 102 97 93 87 88 85 84 86 91 92 77 85 84 54 69 83 86 99 49 73 79 41 339 315 281 248 229 229 226 222 219 221 219 212 215 212 210 212 218 234 231 199 206 215 208 215 222 231 242 222 191 183 192 224 240 229 224 220 223 222 209 208 210 208 209 204 204 205 203 210 208 211 209 198 198 194 196 206 200 202 205
124 128 124 121 116 110 103 96 94 93 91 86 90 94 74 76 79 56 71 84 78 80 64 29 14 14 4 336 311 271 242 236 226 218 217 211 213 222 224 215 209 214 225 239 237 208 200 213 213 216 227 238 247 236 203 190 192 216 244 248 236 219 219 228 217 205 206 206 209 209 204 206 207 205 201 205 210 204 210 203 196 201 202 202 205
135 136 132 129 123 120 115 108 102 100 97 91 89 88 76 76 73 56 63 72 67 69 73 39 6 33 357 319 311 288 268 269 260 243 236 222 220 225 223 220 216 218 219 227 238 228 215 219 219 223 229 233 238 239 226 215 221 223 233 249 248 234 222 230 227 207 208 210 207 213 211 208 208 205 201 205 212 213 218 210 200 199 202 206 206
141 138 138 135 127 126 122 117 112 106 101 97 96 93 87 81 72 65 63 65 64 62 72 71 64 78 150 241 284 287 288 302 293 268 252 234 236 233 226 230 229 224 219 222 233 233 224 217 218 238 234 223 228 237 227 212 221 228 229 240 244 246 237 226 229 222 216 212 208 213 213 207 208 207 209 213 216 216 215 213 208 205 204 206 206
146 143 144 142 137 137 133 128 121 115 112 108 104 103 104 94 82 78 70 76 74 58 67 76 85 90 97 125 120 285 285 295 292 284 272 247 240 236 229 234 231 227 230 238 234 226 226 212 209 235 238 232 233 238 230 210 211 220 215 223 234 241 245 235 227 226 229 223 207 207 212 212 214 212 211 215 218 223 222 216 212 213 213 211 207
150 150 151 148 147 147 146 145 138 132 129 128 124 121 122 115 107 94 73 85 84 52 65 98 110 117 111 116 108 220 279 286 273 279 282 264 255 245 235 234 231 225 227 241 237 225 225 218 217 230 230 233 242 251 250 224 214 219 206 202 218 230 237 245 235 223 231 236 217 209 215 213 211 211 211 215 221 230 229 219 214 217 220 216 213
155 157 157 155 154 155 158 156 154 151 141 145 151 147 138 116 98 93 77 86 87 58 65 82 112 129 111 94 99 208 232 285 267 273 278 274 275 261 251 245 240 233 228 236 239 230 225 221 228 241 241 236 240 253 270 271 260 262 241 201 201 216 225 239 244 229 226 231 229 223 220 215 211 209 212 219 225 234 232 220 214 214 218 218 218
160 163 163 164 162 161 166 164 164 164 158 175 176 161 143 111 89 87 81 80 74 90 118 101 99 121 107 101 88 195 194 264 263 288 283 274 274 268 273 265 251 242 236 240 241 235 231 225 229 245 252 246 242 247 266 290 288 283 287 238 194 203 217 228 240 242 233 226 229 232 226 220 213 208 211 217 220 231 235 225 217 216 219 220 220
166 169 170 172 171 168 170 170 172 176 184 186 148 127 116 112 104 91 86 81 62 82 123 119 128 117 109 153 149 157 205 280 273 292 289 280 277 275 287 285 266 251 245 251 252 247 237 229 230 238 248 249 248 250 252 271 284 278 285 257 206 204 214 225 233 238 242 236 233 235 234 230 222 215 215 215 212 220 230 228 223 221 224 222 220
173 176 177 178 178 175 175 174 175 178 181 156 135 129 122 117 112 96 91 95 74 76 109 122 138 133 108 156 156 159 148 351 311 307 299 282 277 272 278 280 280 272 263 265 262 263 255 237 233 238 245 250 251 252 248 252 258 261 274 261 223 219 222 230 232 230 235 242 242 236 235 236 233 227 223 216 209 211 221 227 226 225 225 222 221
177 180 181 181 181 180 181 178 175 175 171 157 151 153 147 133 127 121 109 111 100 100 119 120 112 113 114 141 151 151 103 352 326 317 308 293 288 283 281 271 277 280 275 274 267 269 268 252 244 243 243 250 254 250 245 242 236 239 267 279 231 215 221 229 233 232 228 232 240 236 231 234 234 231 227 220 212 212 216 222 226 224 218 218 222
179 180 182 183 184 185 184 180 178 178 173 166 164 165 160 147 134 122 113 124 129 117 119 108 96 101 122 158 161 155 296 310 305 301 306 306 299 291 293 282 276 278 271 273 272 263 264 262 257 253 244 244 253 252 244 240 234 229 240 278 241 229 220 212 218 227 226 224 231 232 227 229 232 230 227 224 221 221 219 219 224 223 216 216 223
181 182 184 183 185 188 186 183 180 180 177 173 176 178 173 159 149 147 153 159 146 118 109 100 93 95 103 168 187 217 267 277 279 288 301 303 302 295 295 291 282 285 281 277 275 265 261 262 263 263 250 241 246 250 246 239 230 224 222 225 250 241 222 206 208 220 222 222 227 229 225 225 229 228 225 224 225 226 222 219 223 225 220 217 222
184 184 186 184 185 187 187 184 181 182 182 179 182 185 181 177 188 194 192 188 151 117 109 103 99 102 98 210 213 216 241 257 260 265 282 285 297 296 292 294 287 286 287 283 280 273 264 254 250 256 255 247 245 245 246 241 231 225 223 221 231 252 286 315 311 218 214 219 225 227 225 225 228 228 223 220 223 226 221 216 219 225 224 217 216
187 185 185 186 186 185 187 186 182 185 186 184 183 183 185 188 200 203 190 188 142 124 132 126 112 116 112 147 183 211 240 241 240 241 260 270 276 281 280 285 284 283 283 280 279 277 272 262 249 246 248 249 244 239 241 241 235 233 232 228 232 247 265 277 281 286 225 220 225 228 231 229 228 228 226 222 222 223 221 217 216 222 224 218 212
187 185 184 186 187 184 187 187 184 187 187 186 185 183 188 189 190 193 187 186 152 142 159 160 130 124 130 132 146 213 247 234 239 242 250 261 264 270 272 273 277 279 278 276 275 274 272 269 262 255 250 246 242 240 241 239 233 234 238 236 235 242 251 256 259 267 289 244 223 228 234 235 232 227 224 225 225 223 221 218 215 217 221 219 214
186 185 183 184 186 184 185 185 185 188 187 188 187 185 191 189 184 190 193 182 165 168 180 175 165 161 163 175 247 251 249 237 250 252 252 258 262 268 270 269 272 274 274 273 271 271 272 271 269 268 263 255 247 242 241 239 234 233 235 235 235 240 246 252 253 252 257 265 238 218 226 230 236 232 224 223 227 227 222 218 216 215 216 218 218
185 184 181 181 184 185 184 185 186 188 188 190 189 189 193 189 185 193 197 183 176 187 184 170 175 191 190 194 230 252 267 257 244 253 258 251 253 260 265 266 267 267 267 268 271 272 273 274 275 274 273 270 262 252 246 242 237 235 232 225 227 233 238 242 242 238 243 254 252 253 231 218 227 232 226 222 223 227 225 219 216 213 214 219 222
182 180 178 180 183 185 185 185 187 189 190 192 192 192 193 189 189 195 196 190 187 189 186 183 187 197 202 203 222 233 243 254 249 258 262 252 252 258 262 265 268 269 267 265 268 271 271 271 272 273 272 272 270 266 258 250 241 237 234 229 227 227 227 229 231 227 227 234 240 258 255 247 244 232 227 224 223 225 223 219 217 214 212 217 225
Height
787 786 787 786 787 786 788 788 789 789 789 790 790 792 792 793 794 795 796 797 798 799 800 801 801 802 803 803 804 804 806 807 807 808 809 810 810 812 812 813 813 814 814 815 816 816 817 817 818 819 819 820 820 820 821 821 821 822 822 824 826 826 826 826 827 829 831 832 833 833 834 834 835 835 835 835 835 835 835 835 834 834 835 835 835
785 786 786 786 787 787 789 788 790 789 790 791 791 793 793 794 795 796 797 798 799 800 801 802 802 803 804 804 805 806 806 807 808 809 810 811 812 813 813 814 814 815 815 816 817 817 818 818 819 819 820 821 821 822 822 823 823 823 824 825 827 827 827 827 828 830 832 833 834 834 835 835 836 837 837 836 836 836 836 836 835 835 836 837 836
784 786 787 787 788 787 789 789 790 790 791 792 792 793 794 795 796 798 798 799 800 801 802 802 804 804 805 806 806 807 807 808 809 809 811 812 813 814 814 815 815 816 816 817 818 818 819 819 820 821 822 822 823 823 823 824 824 824 825 827 828 828 828 828 829 830 832 834 835 835 835 836 837 838 838 838 837 837 837 837 837 837 837 838 837
784 785 787 787 788 788 789 789 790 791 792 792 793 794 794 796 797 798 798 800 800 802 802 803 804 805 806 807 808 808 809 809 810 810 811 813 814 815 815 816 816 817 817 818 818 819 820 821 821 822 822 823 824 824 825 825 825 826 826 828 829 829 829 829 830 831 833 834 835 835 835 837 838 839 840 839 839 839 839 839 839 838 839 838 838
785 785 786 787 788 789 789 790 791 791 792 793 794 794 795 796 798 799 799 801 801 802 803 804 805 806 807 807 809 809 810 811 811 812 812 814 815 816 816 817 817 818 818 819 819 820 821 822 822 823 824 824 825 826 827 826 826 827 828 829 830 831 830 831 831 832 834 835 836 836 836 838 839 841 841 841 841 841 841 841 841 840 840 840 839
785 785 787 788 789 789 790 790 791 791 792 793 794 795 796 797 799 800 801 801 802 803 803 804 805 807 808 808 810 810 811 812 812 813 814 815 815 816 817 818 818 819 819 819 820 821 821 822 823 824 824 825 825 827 828 828 828 828 829 830 831 832 832 832 833 833 834 835 837 837 838 839 841 842 842 842 842 843 843 843 842 842 842 841 841
785 787 788 788 789 789 790 790 791 792 792 793 794 795 797 798 799 801 802 802 803 804 804 806 806 807 808 809 810 811 812 813 813 814 815 815 816 817 817 818 819 820 820 820 821 821 822 823 824 824 825 826 826 828 829 829 829 830 831 831 832 833 833 833 834 835 835 836 837 839 839 840 842 843 844 843 843 844 844 844 844 844 843 843 842
785 787 788 788 788 788 790 790 791 792 793 794 795 796 797 799 800 802 802 803 804 804 805 806 807 809 809 810 810 811 812 813 814 814 815 816 817 818 818 819 820 820 821 821 822 822 823 823 824 825 826 827 827 829 830 830 831 831 832 832 833 833 834 834 834 835 836 837 839 839 839 841 843 844 845 844 845 845 845 845 845 845 845 844 844
786 787 787 788 788 789 789 790 792 792 794 795 796 797 798 799 801 802 803 804 805 805 806 807 808 809 810 811 811 812 814 814 814 815 816 816 817 818 819 820 820 821 821 822 822 823 823 824 825 826 827 827 828 829 830 831 832 832 832 833 833 834 835 835 835 836 837 839 840 840 840 842 843 844 846 845 846 846 846 846 846 846 846 846 845
786 786 787 787 788 789 790 791 792 793 794 795 797 798 799 801 801 803 804 805 806 806 807 808 809 810 811 812 812 813 814 815 815 816 816 817 818 818 820 820 821 822 822 822 823 823 824 824 825 826 827 828 829 830 831 832 833 833 833 833 834 834 835 835 836 836 838 839 840 841 842 843 844 845 846 846 847 847 847 847 847 847 847 846 846
785 786 787 787 788 789 790 791 792 794 795 796 798 799 800 801 802 803 804 805 806 807 808 809 810 811 812 812 813 814 815 816 816 816 817 818 818 819 820 821 822 822 822 823 823 824 824 825 826 827 827 828 829 830 831 832 833 834 834 834 834 835 835 836 836 837 840 840 841 842 842 843 844 846 846 847 847 847 847 848 848 848 848 847 847
785 786 787 788 789 790 791 792 793 795 796 797 798 799 801 802 803 804 805 806 807 808 809 810 811 812 812 813 814 814 815 816 817 817 817 818 819 820 820 822 822 823 823 823 824 824 825 826 826 827 828 829 830 831 832 833 834 835 835 835 835 835 836 837 837 839 841 842 842 842 843 844 845 847 847 847 847 848 848 849 849 848 849 848 848
786 786 787 788 789 791 791 792 794 796 796 797 798 800 801 802 804 804 805 806 808 809 810 811 812 812 813 814 814 815 816 817 818 818 818 819 820 820 821 822 822 823 824 824 824 824 826 826 827 828 828 829 830 831 832 833 834 835 835 835 836 836 836 837 838 840 842 842 842 842 843 845 846 847 848 848 848 849 849 849 849 849 849 849 849
788 788 788 789 789 791 792 794 795 796 797 798 799 800 802 803 804 805 806 807 808 809 810 812 812 813 814 815 815 816 817 818 819 819 819 819 820 821 822 822 823 824 824 824 825 825 826 827 828 828 829 830 831 832 833 834 835 835 836 836 836 836 836 837 838 840 842 843 842 842 843 845 847 848 849 849 849 849 850 850 850 850 850 850 850
789 788 790 789 790 792 793 794 795 797 797 798 800 801 803 804 805 806 807 808 809 810 811 812 813 814 814 815 816 817 818 818 819 819 820 820 821 821 822 823 823 824 824 825 825 826 826 827 828 828 829 830 831 832 833 834 835 836 836 836 836 836 836 837 838 840 843 843 842 841 844 846 847 848 849 849 850 850 850 851 851 851 851 850 850
789 789 790 791 791 792 793 795 796 797 798 800 801 802 803 804 806 807 808 809 809 810 811 812 813 814 815 816 816 817 818 819 820 820 820 821 821 822 822 823 823 824 824 825 826 826 827 827 828 829 830 831 831 832 833 834 835 836 836 836 837 837 837 837 838 840 842 842 841 842 844 846 847 849 850 850 850 850 851 851 851 852 851 851 851
789 790 791 792 793 793 794 795 796 798 799 801 802 803 804 805 806 807 808 809 810 811 811 812 813 814 815 816 817 817 818 819 820 820 821 822 822 822 822 823 823 824 824 825 826 827 827 828 828 829 830 831 832 833 834 834 835 836 836 837 837 838 838 838 839 840 843 842 841 842 843 845 847 848 849 850 851 851 852 852 852 852 852 852 851
789 790 791 792 793 794 795 796 797 799 800 802 803 804 805 806 807 807 809 809 810 811 811 812 813 814 815 816 817 818 818 819 820 821 821 822 822 822 823 823 824 824 825 826 827 827 828 828 829 829 830 831 832 833 834 834 835 836 836 837 837 839 839 839 839 841 843 842 841 842 844 845 847 848 849 850 851 851 852 852 852 852 852 852 852
789 790 791 792 793 795 796 797 798 800 801 802 803 804 805 806 806 808 808 809 810 811 812 813 813 815 815 816 817 818 819 819 820 821 822 822 822 823 823 824 824 824 825 826 827 828 829 829 829 830 831 832 832 833 834 835 835 836 837 837 838 838 839 839 840 841 843 842 842 844 844 846 847 848 849 850 851 851 852 852 852 853 853 853 852
790 790 791 792 793 795 796 798 799 800 801 802 803 804 805 805 806 808 808 809 810 810 811 813 814 815 815 816 817 818 818 819 820 821 822 823 823 823 823 824 824 824 825 826 827 828 829 829 830 830 831 832 833 833 834 835 835 836 837 837 838 838 839 839 839 842 842 842 844 844 845 847 847 848 849 850 851 851 852 852 853 853 853 853 853
792 791 792 793 794 795 796 798 799 800 801 802 803 804 805 805 806 807 808 809 810 811 811 812 814 815 816 816 817 818 818 819 820 821 822 823 823 824 824 825 825 825 825 826 827 828 830 830 830 831 831 832 833 833 834 835 835 836 837 837 838 838 839 839 839 842 841 841 844 845 846 847 848 849 850 851 851 852 852 853 853 853 854 853 853
792 793 794 794 795 796 796 798 799 800 801 802 803 802 803 804 805 806 808 809 810 811 811 813 814 815 816 816 817 818 819 819 820 821 822 823 824 824 824 825 826 826 826 826 828 829 830 831 831 831 832 832 832 833 833 834 835 836 836 837 838 838 839 840 840 842 841 841 843 845 846 847 848 849 850 851 851 852 852 853 853 853 853 853 853
792 794 795 796 796 797 797 798 798 800 800 801 802 802 803 803 805 806 807 809 810 811 812 814 814 815 816 816 817 817 818 819 820 821 823 824 824 824 825 826 827 827 827 827 828 829 830 831 832 832 832 832 832 832 833 833 834 835 836 836 837 838 839 840 841 842 841 841 843 844 846 847 848 849 850 851 852 852 853 853 852 853 853 853 853
793 794 796 797 797 798 798 799 799 800 799 800 802 802 803 803 804 805 807 808 809 811 812 814 815 816 816 816 817 818 818 819 820 822 823 824 824 825 825 826 827 827 828 828 829 829 830 831 832 832 832 832 831 831 832 833 834 835 836 836 837 837 839 841 841 841 841 841 843 844 845 846 847 848 850 851 852 852 853 853 852 853 853 853 853
793 795 796 797 798 798 799 799 800 800 799 800 800 801 802 803 804 805 806 808 809 810 812 814 815 816 816 817 817 818 819 819 820 822 823 824 824 825 825 826 827 828 828 828 829 829 830 831 831 832 832 831 831 831 832 833 833 835 836 836 836 836 839 840 841 841 840 841 842 843 845 846 846 848 849 851 852 852 853 853 853 853 853 853 853
793 795 796 797 798 798 799 800 800 800 800 800 800 801 801 802 803 804 806 807 809 810 812 813 813 814 815 815 816 817 817 817 819 820 822 824 825 825 825 826 827 828 828 829 829 829 830 831 831 831 831 831 830 831 833 833 833 834 835 836 836 836 839 840 841 841 840 841 842 843 844 845 846 847 849 850 851 852 853 853 853 852 853 853 853
793 795 796 797 798 798 799 800 800 800 800 800 800 801 802 803 803 804 806 807 809 810 811 811 812 813 813 813 814 815 815 815 818 820 821 822 823 824 824 826 827 827 828 829 830 829 830 831 831 831 831 830 830 831 833 833 833 834 835 835 836 836 838 840 841 841 840 841 842 843 844 844 846 846 848 849 850 851 852 853 853 852 852 853 853
794 796 797 798 798 799 800 800 801 801 800 801 801 802 803 804 804 805 806 807 808 809 810 810 811 812 812 812 813 813 812 814 816 820 822 821 821 823 825 826 826 827 827 829 829 830 830 831 830 830 830 830 830 832 833 833 834 834 835 835 836 837 838 839 840 840 839 840 841 842 843 844 845 846 846 848 849 850 851 852 852 852 852 852 853
795 796 797 798 799 799 800 801 801 801 801 801 802 802 803 804 805 806 806 807 808 809 809 810 811 811 811 811 813 812 812 813 816 820 823 822 821 823 825 825 826 826 827 828 829 829 830 831 830 830 830 829 830 831 832 833 834 834 835 835 836 836 837 838 840 840 839 840 841 842 843 843 844 845 846 847 848 849 850 851 852 852 852 852 852
795 796 798 798 799 800 801 801 801 801 802 802 802 803 803 804 805 805 806 807 808 808 809 810 811 811 811 812 812 812 812 814 817 820 822 821 821 823 825 825 825 826 827 828 829 829 830 831 830 830 830 830 830 831 831 833 833 834 834 834 835 836 837 838 839 840 838 839 840 841 842 843 844 845 845 846 847 848 849 850 851 852 852 852 852
796 797 798 799 800 800 801 801 801 801 802 803 803 803 804 804 805 806 806 807 808 808 809 810 811 811 812 812 812 812 813 813 816 819 821 821 821 823 824 824 824 825 826 827 829 829 829 830 830 831 830 830 830 830 831 832 833 833 834 834 835 835 836 837 838 839 839 838 839 840 841 842 843 843 844 845 846 847 848 849 850 851 852 852 852
796 797 798 799 800 801 801 802 801 801 802 803 803 804 804 805 805 806 807 808 808 809 809 810 810 811 812 811 811 811 812 813 815 818 819 819 819 821 822 821 822 824 826 826 827 828 829 830 830 831 830 830 830 830 830 831 832 833 833 834 834 835 835 836 837 838 839 838 837 839 840 841 842 842 843 843 844 846 847 848 849 850 851 852 852
796 797 798 799 800 801 802 802 802 802 803 803 804 804 805 805 806 806 807 808 809 809 809 809 809 811 811 810 809 809 810 812 814 816 818 818 818 820 820 820 822 824 826 826 826 826 827 829 830 830 830 830 830 830 830 830 832 833 833 833 833 834 835 836 836 837 839 838 837 838 839 840 841 841 842 842 843 844 845 847 848 849 850 851 852
795 797 799 800 801 802 802 803 803 803 803 804 804 804 805 805 806 806 807 808 809 809 809 808 808 809 809 809 808 808 809 811 812 814 816 818 819 821 821 821 822 824 826 827 827 826 825 827 829 830 830 830 829 830 830 830 831 832 832 832 832 833 834 835 835 836 837 838 837 836 838 839 840 840 841 842 842 843 844 845 846 848 849 850 851
795 797 799 800 801 802 803 803 803 804 804 804 804 805 805 805 806 806 807 807 808 809 809 809 809 809 809 808 807 807 809 811 812 812 814 817 819 821 821 821 821 824 826 827 827 826 825 826 828 829 830 829 829 829 830 830 831 831 832 832 831 832 833 834 834 835 836 837 838 837 837 838 839 840 840 840 841 842 842 843 844 846 847 849 850
795 797 798 799 801 802 803 803 804 804 805 805 805 806 806 806 807 807 807 808 808 809 810 811 811 811 811 809 808 807 807 810 812 812 814 816 818 819 820 820 821 822 823 824 825 826 826 825 826 829 830 829 829 829 829 829 830 830 831 831 831 831 832 833 834 834 835 835 837 837 837 837 837 838 839 839 840 841 841 842 843 844 846 847 848
794 796 798 799 800 802 803 803 804 805 805 806 806 806 807 807 807 808 808 808 809 810 811 812 812 812 813 811 810 808 807 808 810 812 813 814 816 817 818 818 819 820 821 822 823 825 825 824 824 828 830 829 829 828 828 828 828 828 828 830 831 831 831 832 833 833 834 834 835 836 837 837 837 837 837 838 839 840 841 841 842 843 844 845 846
794 796 797 799 800 801 802 803 804 805 805 806 806 807 807 807 807 808 809 809 810 810 811 812 813 813 814 813 812 812 810 809 810 811 812 813 814 815 816 816 818 819 820 821 822 823 824 823 823 826 827 828 827 827 827 826 827 826 826 827 829 830 831 831 832 832 833 833 834 835 836 837 837 837 837 837 838 838 840 841 842 842 843 844 845
793 795 797 798 799 801 802 803 804 804 805 805 806 806 807 807 808 808 809 810 810 811 812 812 813 814 814 814 814 814 813 812 811 811 812 813 813 814 814 815 816 817 818 819 821 822 823 822 823 825 826 827 827 826 826 826 826 825 825 824 825 828 830 831 831 831 831 832 832 833 834 835 835 836 837 838 838 838 838 840 840 841 842 843 844
792 794 796 797 798 800 801 802 803 804 804 804 805 806 807 808 809 809 810 810 811 811 812 813 813 814 814 815 815 815 814 814 813 812 812 812 813 813 813 814 815 816 817 818 820 821 821 820 821 823 825 826 826 826 826 825 824 824 824 824 824 825 827 829 830 830 830 831 831 832 832 833 833 834 835 836 838 837 837 838 839 840 840 841 842
792 793 794 796 797 798 800 801 802 803 803 804 804 805 806 807 808 809 809 810 811 811 811 813 813 814 814 815 815 815 815 814 814 813 813 813 813 813 813 814 814 815 816 817 818 819 820 819 819 821 823 825 825 826 826 825 824 824 823 823 823 823 825 827 829 829 829 830 830 830 830 831 831 832 832 833 835 836 836 836 837 838 839 839 840
790 791 793 794 796 797 799 800 801 802 803 803 804 805 806 807 808 808 809 810 811 811 812 812 813 813 814 814 815 815 815 815 815 814 813 813 813 813 813 813 813 813 814 815 817 818 818 818 818 818 820 823 824 825 825 825 825 824 823 824 823 823 824 825 826 827 828 828 829 829 829 829 830 831 831 831 832 834 835 835 835 837 837 837 838
788 790 791 793 794 796 797 798 800 801 802 803 804 805 806 806 807 808 809 809 810 811 811 811 812 813 813 814 814 815 815 815 815 814 814 813 812 812 812 812 812 812 813 814 815 816 817 817 817 818 819 821 823 823 823 823 824 824 824 825 824 823 824 824 824 825 825 826 827 827 827 828 828 829 830 830 830 832 833 834 834 834 835 835 835
786 788 789 791 793 794 796 797 799 800 801 802 803 804 805 806 807 807 808 809 809 810 810 811 812 812 813 813 814 814 814 814 814 814 813 813 813 812 812 811 811 812 812 813 813 814 814 814 814 816 818 820 820 821 821 821 822 823 824 824 823 823 823 822 821 821 822 823 824 824 825 826 826 827 828 828 829 830 831 832 833 833 834 833 833
784 785 787 789 791 793 794 796 797 799 800 801 802 802 804 805 806 807 807 808 808 809 810 810 811 811 812 812 813 813 813 813 813 813 813 813 813 812 812 812 811 811 811 812 812 813 813 813 813 814 817 819 818 819 820 820 820 820 821 821 821 821 820 818 819 819 819 820 821 821 822 823 823 824 825 825 827 828 829 830 831 832 832 832 832
781 783 785 786 789 791 793 794 796 797 798 799 801 801 802 804 804 805 806 806 807 808 808 809 810 810 811 811 812 812 812 813 813 813 813 813 813 813 812 812 812 812 812 812 812 812 812 813 813 814 816 817 817 818 818 818 818 818 818 817 818 819 818 818 819 819 818 817 818 819 819 820 821 822 822 823 824 825 826 827 829 830 830 830 830
779 781 783 784 787 789 791 793 794 796 797 798 799 800 801 802 803 804 804 805 805 806 807 808 808 809 809 810 811 811 811 812 812 812 813 813 813 813 813 813 812 812 812 812 812 812 812 813 813 814 815 815 816 816 815 815 816 816 816 815 815 817 818 819 819 818 818 817 816 817 818 818 819 820 820 821 822 823 823 824 826 827 828 828 828
777 778 780 782 785 787 789 791 793 794 795 797 798 799 800 801 802 803 803 804 804 805 806 807 807 808 808 809 809 810 810 810 811 811 812 812 812 813 813 813 812 812 812 812 812 812 812 812 813 813 813 814 814 813 813 813 814 813 813 813 814 815 816 818 818 818 818 817 815 814 815 816 817 817 818 819 819 820 821 822 823 824 826 826 827
774 776 778 780 783 785 788 789 791 793 794 795 796 798 799 800 801 802 802 803 803 804 805 805 806 807 807 808 808 809 809 809 810 810 810 811 811 811 812 812 812 812 812 812 812 812 811 811 811 811 811 811 812 811 811 811 811 810 810 812 814 813 813 815 817 817 817 816 814 811 811 813 814 814 815 816 817 818 818 819 820 822 823 824 825
772 774 776 778 781 783 786 787 789 791 792 793 795 796 798 798 799 801 801 802 802 803 804 804 805 805 806 807 807 807 808 808 809 809 809 809 809 810 810 810 810 810 810 810 810 810 810 810 809 809 809 809 809 809 808 808 808 807 807 809 810 810 811 812 812 813 814 814 813 810 809 811 812 813 813 814 815 815 816 816 817 818 819 821 822
770 773 775 776 779 781 783 786 788 790 791 792 794 795 796 797 798 799 800 800 801 802 802 803 803 804 805 805 806 806 807 807 807 808 808 808 808 808 808 809 809 809 809 809 809 809 809 808 808 807 807 807 806 806 805 805 805 805 805 805 806 806 807 808 807 809 810 810 810 809 807 808 809 810 811 811 811 812 813 813 814 814 816 818 820